Location: All Nations United Methodist Church
(33.0215°N, 96.7483°W)
Time: 08:07:20
(UTC+00:00)

FALCON 9 DEB - Visible Passes

Search period start: 09 May 2021 00:00
Search period end: 19 May 2021 00:00
Orbit: 368 x 387 km, 53.0° (Epoch: 08 May)

Date Brightness Start Highest point End Pass type
(mag) Time Alt. Az. Time Alt. Az. Time Alt. Az.
09 May 4.3 02:40:10 10° NNW 02:42:44 24° NE 02:43:04 24° NE visible
10 May 5.4 01:40:52 10° NNE 01:41:54 11° NNE 01:42:56 10° NE visible
10 May 4.3 03:14:55 10° NW 03:16:59 37° WNW 03:16:59 37° WNW visible
11 May 3.5 02:14:24 10° NNW 02:17:19 42° NE 02:18:50 23° ESE visible
12 May 4.2 02:49:38 10° WNW 02:52:19 29° SW 02:52:51 27° SSW visible
13 May 2.7 01:48:43 10° NW 01:51:47 82° NE 01:54:48 10° SE visible
14 May 5.3 02:24:38 10° W 02:26:37 16° SW 02:28:35 10° SSW visible
